THOR ABLESTAR DEB, 125

Orbit data source: Space-Track

THOR ABLESTAR DEB, 125 is space debris in LEO originally from a launch on Thu, 29 Jun 1961 UTC launched from the Air Force Eastern Test Range (AFETR). Debris objects in space refer to the collection of defunct objects orbiting the Earth. Examples of debris include non-operational satellites, rocket bodies, and fragments generated from explosions, collisions, or faulty payload assembly.

Loading next visibility...
Identifier
125, 1961-015K
Orbit
LEO
Country
Flag of USUS
Related business
Manufacturer
Unknown
Mission
Spacecraft
Bus & Motor
Unknown
Mass
Unknown
Launch date (UTC)
1961-06-29 (64 years ago)
Launch vehicle
Unknown
Launch site
Air Force Eastern Test Range (AFETR)
Object type
Payload
Rocket body
Debris
Shape & HBR
Unknown
Radar Cross Section
Small (<0.1 m²)

Expand to show TLE details & history
Last TLE update: 1 day ago

TLE from 1 day ago
0 THOR ABLESTAR DEB
1 00125U 61015K   25260.36970640  .00000516  00000-0  34329-3 0  9997
2 00125  66.8734 252.1527 0080446 264.4836  94.7072 14.07414711278863
Epoch: 2025-09-17T08:52Z
TLE epoch observation values (Epoch: 2025-09-17T08:52:22.632Z)
Latitude
-0.00008°
Longitude
122.51173°
Altitude
875.58 km
Speed
7.412 km/s
True Right ascension
16h 48m 36s
True Declination
0° 00' 00"
Sunlit
Object was in daylight at epoch
Visualization orbit readout
Latitude
Unknown
Longitude
Unknown
Altitude
Unknown
Speed
Unknown
Apparent Right ascension
Unknown
Apparent Declination
Unknown
Sunlit
N/A
Visualization observer readout
Local Sidereal Time
06:40:45
Azimuth
Unknown
Elevation
Unknown
Doppler factor
Unknown
Orbital elements
Apogee altitude
924.885 km
Perigee altitude
808.323 km
Semi-major axis
7,244.741 km
Eccentricity
0.00804
Inclination
66.8734°
RAAN
252.1527°
Arg. of periapsis
264.4836°
True anomaly
95.62514°
Mean anomaly
94.7072°
Eccentric anomaly
95.16625°
Mean motion
3.51973 °/min
Orbital period
102.28 mins
BSTAR
0.00034329
Loading maneuver chart data...
Computing Atmospheric mass density...

Documentation

Showing up to 5 results
|